Temp
63 63 63 63 64 63 63 63 63 63 63 63 63 62 62 62 62 60 54 63 67 71 70 70 68 65 66 62 65 67 51 48 52 57 62 73 72 77 77 71 75 75 71 75 77
63 63 63 63 63 63 62 62 62 62 63 63 62 62 62 61 58 55 66 70 72 71 65 63 62 63 56 58 59 57 49 51 62 66 65 69 71 71 68 67 69 70 75 77 74
62 63 63 62 62 62 62 62 61 62 62 62 62 62 61 60 49 53 69 70 71 71 67 67 67 62 55 57 57 56 49 59 63 67 65 66 66 71 68 62 68 68 72 75 73
63 62 61 61 61 61 61 61 61 61 61 61 61 61 59 56 37 61 69 68 71 70 64 61 63 57 52 50 58 52 58 60 65 65 63 60 65 64 67 67 74 72 73 73 71
62 61 61 61 61 60 60 61 61 61 61 61 60 59 56 45 48 65 68 66 66 66 59 57 57 57 51 54 56 53 58 62 65 65 63 65 61 62 65 70 72 73 73 71 72
61 61 61 61 61 61 60 60 60 60 60 60 60 59 51 39 65 69 66 62 61 58 59 59 57 62 58 56 55 57 59 61 64 63 63 60 59 62 65 71 68 70 67 66 68
61 60 60 60 60 59 60 60 60 59 59 60 60 57 49 48 66 67 63 59 59 57 52 61 61 60 60 55 62 58 51 55 58 61 58 61 54 57 66 69 66 67 65 69 70
60 60 59 59 59 59 59 59 59 60 59 60 59 55 44 63 66 64 65 57 59 59 57 58 58 55 59 61 58 50 50 43 55 58 59 58 46 59 66 65 64 66 65 67 70
60 59 59 59 59 59 58 58 58 59 59 59 54 50 44 64 56 62 63 57 54 55 57 59 53 51 55 48 43 46 38 41 48 58 57 54 48 60 66 63 63 63 65 67 68
59 58 58 59 58 58 58 57 56 57 58 60 56 44 50 51 59 61 64 60 49 48 48 48 48 45 46 44 33 38 39 44 44 53 55 51 50 59 63 61 61 63 65 67 67
58 58 58 58 57 56 55 52 45 43 50 46 47 47 52 59 62 57 61 52 49 40 38 47 40 38 43 48 48 47 46 45 50 57 52 51 50 55 60 58 58 60 61 63 66
58 57 57 58 57 57 55 46 45 46 37 50 52 52 56 58 47 54 61 46 40 33 37 41 37 44 51 51 47 48 46 46 53 55 51 51 50 57 59 58 59 61 61 62 63
57 57 57 57 57 54 49 44 50 52 38 45 50 49 51 54 46 47 53 48 39 34 35 38 42 48 48 46 44 45 41 43 48 51 47 45 45 52 58 60 61 62 61 61 60
57 57 57 57 51 53 47 51 52 52 30 35 37 45 50 51 43 55 52 46 39 33 36 41 51 47 45 43 46 39 49 48 51 43 33 46 32 47 54 55 57 55 57 58 56
56 57 56 56 49 47 50 55 52 45 18 38 39 51 49 43 39 44 52 44 36 36 41 37 43 43 38 40 46 40 46 50 47 42 40 39 31 45 52 50 51 52 55 56 57
56 56 55 56 52 53 54 53 47 29 19 32 39 37 36 39 38 43 44 45 43 43 44 41 48 44 44 46 45 44 40 43 45 41 29 38 35 37 44 50 51 54 55 57 57
56 56 54 57 48 56 52 44 29 24 39 31 34 36 34 36 37 41 37 36 36 32 33 38 37 42 44 38 41 38 34 30 28 28 25 43 36 41 50 55 54 53 54 56 57
55 56 56 58 57 55 47 34 25 33 31 37 37 36 33 37 35 37 38 36 42 42 36 32 28 36 40 40 36 35 37 32 25 23 28 40 29 38 51 56 58 57 55 56 56
55 56 55 56 57 53 40 29 28 31 35 32 35 33 34 36 36 35 35 38 40 44 35 30 30 38 40 42 43 36 34 39 33 36 27 32 37 43 47 51 52 53 54 53 55
52 53 53 58 57 48 39 34 34 42 38 35 31 41 35 42 37 41 42 47 45 50 50 41 30 38 39 43 43 39 45 32 32 26 26 31 33 34 40 46 50 51 51 53 54
51 49 53 58 53 44 33 34 37 47 45 39 42 43 46 45 47 44 42 47 51 49 51 47 40 35 39 37 36 36 34 38 39 34 26 23 30 45 45 48 49 51 53 53 53
49 41 55 56 40 40 39 44 44 48 48 46 48 48 46 47 44 44 41 45 52 51 45 48 40 32 37 45 48 45 43 42 27 27 30 27 29 50 48 49 51 51 54 54 54
46 48 57 55 35 37 44 45 49 48 49 49 48 51 52 46 40 45 44 51 52 48 45 47 36 29 32 38 43 38 43 44 38 35 31 25 29 50 48 48 50 50 52 53 53
47 36 47 51 48 41 39 41 45 51 50 52 51 52 49 46 48 43 43 48 50 50 49 49 40 31 25 32 38 30 38 39 33 28 32 31 38 44 47 47 50 51 52 52 52
46 39 42 39 42 45 45 45 45 44 51 52 48 49 47 42 43 42 44 46 49 50 48 46 32 34 39 41 41 37 36 37 28 33 26 37 41 45 49 48 50 52 53 52 51
40 37 42 41 49 46 45 43 41 45 47 47 46 49 49 43 43 41 44 43 43 45 44 46 32 35 29 41 40 34 40 39 38 38 39 41 40 51 53 53 52 50 51 50 49
46 46 40 42 46 44 41 42 42 47 50 51 48 47 45 45 49 50 50 49 47 43 43 43 36 31 26 36 36 29 37 39 39 41 41 34 42 49 49 52 50 49 49 48 48
MSLP
1017.30 1016.72 1016.47 1016.22 1016.00 1015.84 1015.64 1015.50 1015.34 1015.16 1014.96 1014.85 1014.76 1014.69 1014.73 1014.67 1014.57 1014.33 1013.60 1013.15 1012.73 1012.58 1012.55 1012.23 1012.50 1012.96 1012.93 1012.61 1012.33 1012.67 1012.51 1011.69 1010.54 1009.27 1007.65 1006.40 1005.93 1005.92 1006.41 1006.99 1006.94 1007.22 1007.91 1009.04 1009.68
1017.18 1016.75 1016.36 1016.07 1015.89 1015.66 1015.44 1015.29 1015.14 1014.98 1014.68 1014.52 1014.44 1014.43 1014.43 1014.36 1014.30 1013.25 1012.77 1012.17 1011.98 1012.26 1012.53 1012.32 1012.04 1012.59 1012.94 1012.55 1012.46 1012.12 1011.85 1010.82 1009.90 1008.87 1007.97 1006.81 1006.50 1006.55 1006.96 1007.36 1007.42 1007.63 1008.38 1009.23 1010.11
1017.15 1016.67 1016.23 1015.90 1015.63 1015.45 1015.24 1015.01 1014.82 1014.57 1014.45 1014.32 1014.20 1014.10 1014.15 1014.30 1013.93 1011.67 1011.16 1011.21 1011.41 1011.78 1012.15 1011.92 1011.53 1012.15 1012.54 1012.45 1012.27 1011.89 1011.09 1010.70 1009.93 1009.14 1008.53 1007.60 1007.33 1007.65 1007.31 1007.83 1008.06 1007.95 1008.45 1009.08 1009.91
1016.91 1016.33 1016.10 1015.85 1015.49 1015.23 1015.05 1014.79 1014.50 1014.26 1014.19 1014.08 1013.95 1013.85 1013.95 1014.18 1012.89 1010.49 1010.42 1010.02 1010.49 1011.42 1011.89 1011.92 1011.29 1011.45 1012.06 1011.97 1011.63 1011.37 1011.09 1010.70 1009.68 1009.41 1009.16 1008.75 1008.50 1008.07 1007.78 1008.12 1008.18 1007.99 1007.92 1008.69 1009.67
1016.76 1016.28 1015.78 1015.47 1015.23 1014.99 1014.75 1014.40 1014.13 1013.95 1013.79 1013.65 1013.75 1013.79 1013.96 1013.61 1011.85 1010.81 1010.78 1011.00 1011.09 1011.22 1011.50 1011.66 1011.21 1010.90 1011.06 1011.46 1011.56 1011.22 1010.70 1010.39 1009.89 1009.97 1009.83 1009.35 1009.02 1008.86 1008.31 1008.34 1008.48 1008.53 1008.66 1009.03 1009.55
1016.42 1015.91 1015.42 1014.95 1014.60 1014.36 1014.20 1014.04 1013.74 1013.60 1013.45 1013.41 1013.41 1013.61 1013.70 1012.53 1010.96 1010.40 1010.53 1011.25 1011.71 1011.77 1011.24 1011.34 1010.99 1010.70 1010.79 1010.99 1011.10 1010.99 1010.94 1010.53 1010.04 1010.52 1010.12 1009.82 1009.77 1009.66 1009.27 1008.95 1008.85 1009.01 1009.25 1009.41 1009.57
1016.30 1015.70 1015.09 1014.55 1014.11 1013.82 1013.63 1013.41 1013.39 1013.28 1013.08 1013.10 1013.22 1013.41 1012.93 1011.79 1010.50 1010.42 1011.04 1011.57 1011.77 1012.19 1011.91 1011.21 1011.40 1010.73 1010.61 1010.77 1010.71 1011.07 1011.42 1011.02 1010.66 1010.45 1010.46 1010.50 1010.49 1009.92 1009.81 1009.40 1009.21 1009.27 1009.45 1009.55 1009.74
1016.05 1015.49 1014.86 1014.20 1013.55 1013.08 1012.92 1012.75 1012.73 1012.73 1012.76 1012.74 1012.86 1013.01 1012.06 1010.87 1010.76 1010.68 1010.76 1011.56 1011.92 1012.44 1012.51 1012.15 1011.89 1011.67 1010.43 1010.50 1010.65 1011.21 1011.74 1011.32 1010.96 1010.67 1010.71 1010.90 1010.44 1010.42 1010.21 1010.07 1009.83 1009.54 1009.63 1009.63 1009.66
1015.75 1015.29 1014.51 1013.70 1012.96 1012.40 1012.13 1011.98 1012.12 1012.28 1012.38 1012.39 1012.72 1012.65 1011.25 1010.31 1010.51 1010.35 1010.57 1010.81 1011.51 1012.17 1012.33 1012.47 1012.20 1011.61 1010.83 1010.78 1011.47 1011.34 1011.41 1011.47 1010.91 1010.80 1010.77 1010.83 1010.35 1010.19 1009.95 1010.15 1010.16 1009.98 1009.80 1009.55 1009.44
1015.44 1014.96 1014.26 1013.34 1012.67 1012.12 1011.73 1011.42 1011.63 1011.99 1011.99 1011.84 1012.21 1012.66 1011.15 1010.04 1009.90 1010.10 1010.19 1010.66 1012.03 1012.50 1012.41 1012.11 1011.51 1011.30 1010.91 1010.93 1010.51 1010.51 1010.86 1010.43 1010.33 1010.41 1010.66 1010.86 1010.67 1010.11 1009.94 1009.97 1010.14 1010.05 1009.88 1009.64 1009.39
1015.30 1014.60 1014.00 1013.22 1012.70 1012.47 1012.01 1011.72 1012.27 1012.33 1011.75 1011.08 1011.11 1010.84 1010.13 1010.08 1010.23 1010.07 1010.08 1011.19 1012.73 1014.04 1012.92 1011.46 1010.98 1010.11 1008.99 1009.37 1010.58 1010.72 1010.75 1010.39 1009.88 1009.61 1010.47 1010.52 1010.86 1010.43 1010.13 1010.03 1010.17 1010.03 1009.66 1009.36 1009.23
1015.17 1014.40 1013.83 1013.22 1012.79 1012.67 1012.48 1012.40 1012.84 1013.04 1012.24 1011.40 1010.97 1010.78 1010.44 1010.43 1010.39 1010.03 1009.85 1011.11 1012.56 1013.01 1012.71 1011.70 1009.98 1010.29 1010.45 1010.62 1010.92 1010.79 1010.49 1010.22 1009.62 1009.64 1010.34 1010.61 1010.41 1010.16 1009.93 1009.76 1009.95 1010.11 1009.95 1009.69 1009.53
1015.20 1014.26 1013.66 1012.98 1012.64 1012.79 1013.20 1013.83 1013.57 1013.08 1012.44 1011.26 1010.88 1010.62 1010.43 1010.44 1010.32 1010.32 1010.74 1011.16 1012.02 1012.30 1012.69 1011.39 1009.88 1010.70 1010.47 1010.61 1010.89 1010.74 1010.70 1010.66 1009.89 1010.71 1010.97 1010.82 1010.47 1009.77 1009.31 1009.27 1009.49 1009.78 1009.97 1010.12 1010.14
1015.12 1014.31 1013.45 1012.83 1012.70 1012.59 1013.33 1013.84 1013.86 1013.58 1012.94 1011.96 1011.31 1011.10 1010.80 1010.47 1010.32 1010.43 1011.00 1011.53 1012.11 1012.27 1012.04 1011.07 1009.60 1010.36 1010.54 1010.90 1011.26 1011.09 1010.84 1010.89 1010.23 1010.81 1011.32 1011.16 1010.65 1009.06 1008.99 1009.06 1009.40 1009.87 1010.23 1010.39 1010.51
1014.61 1014.12 1013.44 1013.14 1013.08 1012.86 1013.61 1013.57 1013.68 1013.74 1012.91 1011.96 1011.47 1011.45 1010.97 1010.97 1011.43 1010.96 1010.93 1011.92 1012.28 1011.24 1011.11 1010.20 1009.95 1010.33 1011.44 1011.85 1012.02 1012.16 1011.96 1011.04 1011.43 1011.35 1011.25 1011.66 1011.75 1008.84 1008.78 1009.05 1009.44 1010.11 1010.51 1010.68 1010.95
1014.59 1014.13 1013.38 1012.72 1012.93 1013.10 1013.50 1013.55 1013.69 1013.66 1012.36 1011.85 1011.50 1011.39 1011.28 1011.37 1011.37 1010.92 1011.36 1012.01 1011.33 1010.16 1009.06 1010.03 1010.50 1011.36 1011.83 1012.34 1012.78 1013.20 1012.86 1012.84 1012.44 1012.02 1011.97 1011.26 1011.29 1009.70 1008.80 1008.71 1009.45 1010.01 1010.57 1010.98 1011.38
1014.22 1013.84 1013.51 1012.89 1012.91 1013.01 1013.55 1013.80 1013.60 1013.02 1012.47 1011.95 1011.65 1011.51 1011.19 1010.39 1010.72 1010.61 1011.03 1010.91 1009.71 1009.78 1010.34 1011.28 1012.28 1012.88 1012.85 1013.22 1013.85 1014.05 1013.42 1013.34 1013.48 1013.11 1011.82 1010.76 1011.10 1009.19 1008.66 1008.43 1009.28 1010.05 1010.72 1011.18 1011.47
1013.53 1013.52 1013.36 1012.62 1012.87 1013.07 1013.31 1013.93 1013.27 1013.31 1012.72 1012.26 1011.19 1010.75 1010.63 1010.43 1010.72 1010.58 1010.16 1009.68 1009.53 1009.32 1010.08 1011.19 1013.20 1013.57 1013.62 1013.45 1013.65 1013.97 1013.42 1013.38 1012.93 1012.31 1011.76 1011.08 1010.47 1009.41 1008.72 1008.74 1009.46 1010.09 1010.76 1011.33 1011.69
1013.24 1012.78 1012.79 1012.62 1012.73 1012.91 1013.05 1013.41 1014.07 1013.58 1013.10 1012.22 1010.64 1010.45 1009.88 1009.81 1010.15 1010.01 1009.41 1008.91 1009.20 1008.88 1009.12 1010.60 1012.69 1013.66 1013.76 1013.56 1013.62 1014.03 1013.57 1013.70 1013.39 1011.76 1011.69 1011.39 1010.56 1010.20 1009.67 1009.68 1009.96 1010.50 1011.10 1011.49 1011.92
1013.25 1012.54 1012.34 1012.58 1012.33 1012.58 1012.46 1013.09 1013.23 1012.49 1012.34 1012.14 1010.59 1008.94 1008.24 1007.81 1008.59 1008.19 1007.88 1008.07 1008.07 1007.80 1007.75 1009.37 1011.49 1013.06 1013.54 1013.67 1013.83 1013.55 1013.08 1013.68 1013.03 1012.24 1011.28 1010.74 1010.03 1009.31 1009.89 1009.97 1010.25 1010.72 1011.10 1011.52 1012.06
1012.73 1012.66 1012.51 1012.48 1012.54 1012.36 1012.71 1012.81 1012.68 1011.79 1011.20 1010.74 1009.00 1007.96 1007.14 1006.63 1006.63 1006.71 1007.77 1008.04 1007.51 1007.36 1007.44 1008.36 1009.82 1012.54 1013.10 1012.81 1012.71 1013.18 1012.74 1012.08 1012.23 1011.67 1011.45 1010.80 1009.74 1008.31 1008.90 1009.59 1010.19 1010.63 1010.89 1011.41 1012.05
1013.21 1012.71 1012.45 1012.49 1012.69 1012.42 1012.16 1011.68 1011.46 1010.68 1010.41 1009.68 1008.60 1007.37 1006.79 1006.50 1006.61 1006.65 1007.61 1007.64 1007.68 1007.61 1007.62 1008.26 1009.54 1011.11 1011.54 1011.53 1011.53 1011.42 1011.37 1011.31 1011.76 1012.13 1011.89 1011.38 1010.26 1008.87 1009.37 1009.82 1010.09 1010.53 1010.95 1011.51 1012.05
1013.97 1012.93 1011.86 1011.90 1012.91 1012.72 1012.25 1011.28 1010.48 1009.88 1009.29 1008.61 1007.90 1007.41 1006.73 1006.62 1006.73 1007.05 1007.72 1008.08 1007.97 1007.92 1008.28 1008.26 1009.53 1010.86 1011.47 1011.69 1011.33 1011.27 1011.17 1011.17 1011.84 1012.23 1011.95 1011.55 1010.31 1009.36 1009.68 1010.11 1010.39 1010.72 1011.19 1011.67 1012.25
1014.57 1014.19 1013.14 1012.40 1013.04 1012.76 1012.12 1011.08 1009.83 1009.46 1008.94 1008.31 1007.74 1007.12 1006.62 1006.67 1006.67 1007.20 1007.68 1008.18 1008.10 1008.10 1008.18 1008.26 1009.18 1010.26 1010.73 1010.72 1010.72 1011.18 1011.22 1011.62 1012.23 1012.48 1011.65 1010.81 1010.05 1009.72 1009.83 1010.12 1010.32 1010.62 1011.06 1011.63 1012.25
1015.59 1016.08 1015.89 1014.17 1013.15 1012.55 1012.06 1011.39 1010.18 1009.52 1009.01 1008.34 1007.80 1007.57 1007.35 1007.12 1007.21 1007.64 1007.97 1008.16 1008.20 1008.35 1008.28 1008.57 1009.58 1010.27 1010.53 1010.63 1010.61 1010.96 1011.21 1011.52 1012.19 1011.86 1011.46 1010.60 1009.65 1009.10 1009.24 1009.57 1009.87 1010.19 1010.84 1011.58 1012.29
1016.80 1017.34 1016.76 1015.41 1013.58 1012.80 1012.12 1011.78 1011.44 1010.43 1009.55 1008.71 1008.41 1008.05 1007.73 1007.84 1008.12 1007.82 1007.86 1007.92 1007.94 1008.28 1008.37 1008.79 1009.79 1010.46 1010.76 1010.66 1010.68 1010.77 1010.80 1011.06 1011.51 1011.61 1011.12 1010.39 1009.54 1008.62 1008.87 1009.27 1009.73 1010.29 1010.95 1011.68 1012.32
1018.42 1018.05 1017.17 1015.54 1013.93 1013.09 1012.85 1012.32 1011.88 1011.13 1009.95 1009.47 1009.28 1008.76 1008.62 1008.99 1008.50 1008.11 1008.04 1008.04 1008.10 1008.32 1008.64 1009.09 1009.91 1010.59 1010.78 1010.76 1010.59 1010.37 1009.76 1010.11 1010.42 1010.51 1010.36 1010.03 1009.56 1008.93 1009.13 1009.46 1009.91 1010.60 1011.13 1011.85 1012.48
Wind_Speed
22 20 17 17 18 18 17 17 15 15 15 14 14 12 12 14 13 14 17 14 17 19 5 9 13 11 10 7 11 13 8 12 20 22 14 11 9 11 7 6 5 8 4 9 10
20 20 18 19 18 17 17 17 17 17 16 16 15 14 13 10 15 20 20 22 21 17 15 13 14 14 6 8 6 9 11 19 17 13 15 10 9 10 5 4 9 5 12 10 9
22 19 20 18 18 19 18 16 16 16 15 14 15 14 14 7 9 17 23 27 25 20 16 16 14 16 14 9 13 9 15 14 16 11 9 7 6 5 6 6 8 7 10 9 11
21 21 20 19 18 17 17 16 15 15 14 14 14 13 10 7 9 7 16 21 27 17 17 18 16 18 14 13 14 12 19 17 11 3 4 1 3 3 4 5 7 4 0 10 6
22 20 18 18 18 17 17 18 15 15 15 13 10 10 4 7 14 14 22 10 8 15 18 18 17 15 20 16 13 17 13 14 16 6 4 3 2 3 6 6 4 9 8 4 7
21 21 21 20 20 20 17 17 16 14 12 13 9 5 8 16 12 12 5 5 4 8 19 17 11 17 12 17 19 6 15 14 11 8 4 1 0 1 9 9 5 6 4 2 2
23 23 22 22 22 22 21 18 17 14 12 11 10 6 10 14 11 8 7 5 3 4 7 14 20 14 15 15 14 7 5 10 4 7 3 2 3 14 9 9 6 8 6 6 7
24 24 24 25 24 23 21 20 16 14 12 11 9 5 7 9 11 17 15 6 5 1 8 11 11 14 16 6 8 10 4 8 12 7 6 7 7 11 10 11 11 8 7 9 9
24 25 25 25 23 22 18 16 14 11 10 8 3 4 7 3 10 11 12 10 5 2 6 12 5 7 10 13 9 7 8 9 7 14 5 8 7 9 12 11 11 9 9 7 8
23 25 25 24 23 20 13 8 2 5 8 6 2 2 7 5 2 4 7 8 5 7 7 5 6 6 8 12 15 17 17 17 16 17 16 12 10 5 8 4 9 9 11 11 8
24 26 24 23 16 13 10 1 2 4 9 6 7 8 1 6 4 8 5 11 9 5 7 11 6 15 26 22 4 10 11 14 15 12 21 19 14 16 7 5 6 8 7 7 6
24 25 25 21 14 11 7 5 7 3 3 9 10 10 14 8 5 9 6 5 4 6 4 7 10 10 11 14 15 15 7 14 12 12 9 12 19 16 16 11 9 9 8 8 5
24 24 24 19 14 6 7 5 6 9 2 3 7 6 7 8 12 12 4 7 3 3 10 12 9 16 12 14 15 12 11 12 9 7 3 2 7 16 15 10 9 8 6 6 6
24 24 21 19 1 5 4 3 6 6 3 2 2 1 5 3 6 4 4 4 3 11 14 7 14 20 13 13 11 13 11 16 10 11 5 8 5 14 15 9 9 6 4 6 3
24 24 18 9 5 3 3 1 2 1 2 3 2 2 4 2 4 5 6 3 10 11 8 7 17 19 12 6 7 4 11 10 8 8 7 7 1 6 13 12 8 8 7 6 5
25 24 13 2 2 4 5 4 2 3 5 3 2 1 3 5 2 1 4 3 13 7 15 9 10 5 4 13 8 6 6 5 7 3 2 10 8 4 7 11 8 8 8 7 7
27 19 5 2 2 5 3 1 2 5 8 10 3 3 3 3 3 4 6 7 1 6 6 7 5 3 4 8 8 3 11 4 3 2 5 11 8 8 9 11 9 10 9 8 6
25 15 4 1 3 1 1 1 8 4 4 3 5 5 5 5 5 3 2 2 10 10 6 4 7 1 1 2 5 7 2 1 4 5 5 5 6 5 7 10 10 9 9 7 8
22 2 3 3 2 1 2 7 3 2 4 9 11 5 4 0 3 1 4 4 3 4 4 6 5 3 0 1 5 6 6 4 5 5 6 6 3 5 2 8 9 9 7 7 7
5 3 2 1 2 1 2 5 2 3 2 3 3 4 4 3 12 11 5 6 3 3 2 4 7 2 4 2 2 4 5 5 2 2 3 5 7 5 11 11 10 9 8 8 6
2 3 1 2 2 2 4 3 1 6 4 4 6 3 7 7 10 9 6 5 5 2 4 6 3 5 7 5 6 4 2 3 1 1 1 3 2 6 17 12 10 9 8 8 7
3 3 2 4 3 1 4 4 2 3 4 7 7 7 7 8 10 5 7 6 6 5 4 5 5 3 3 3 1 3 5 5 4 2 1 2 3 7 9 9 8 8 6 7 7
4 3 4 3 4 4 7 8 3 7 5 6 4 4 4 4 4 5 5 5 4 5 3 3 3 4 3 2 2 3 3 2 5 2 2 1 2 7 10 9 6 7 7 7 7
3 5 4 2 4 1 3 7 4 3 4 4 3 6 3 7 7 4 4 3 4 4 7 4 4 4 3 4 5 3 4 5 4 3 2 4 5 7 12 9 6 8 7 8 7
4 4 3 5 4 6 3 8 10 7 8 4 1 5 5 2 2 4 3 4 1 1 1 4 3 3 4 4 3 5 3 7 4 5 4 5 2 8 10 8 8 8 8 8 7
3 4 4 5 7 8 7 5 8 10 7 5 6 6 8 6 5 1 2 2 2 0 2 2 2 3 2 0 2 3 5 7 7 7 8 5 6 4 7 6 5 6 8 6 7
4 3 2 6 6 6 2 4 6 10 2 5 7 9 6 5 6 6 4 5 5 2 2 2 3 1 1 1 4 5 10 9 6 6 9 7 6 1 4 5 5 5 7 6 7
Wind_Direction
325 333 334 330 325 324 318 314 309 303 302 306 295 288 296 295 289 269 260 240 229 247 288 282 189 213 236 226 235 221 237 238 242 242 252 262 215 164 186 259 249 151 87 111 109
334 335 330 325 328 318 313 310 306 302 301 300 295 288 279 295 287 270 266 259 237 239 235 241 197 202 209 218 214 210 215 235 238 250 257 273 58 327 137 246 283 167 103 119 118
336 330 325 325 321 320 318 311 305 303 303 298 294 286 283 288 292 267 256 240 237 225 227 227 237 193 216 231 215 210 232 228 250 266 356 336 126 270 163 189 243 198 157 144 143
335 334 336 329 326 323 314 307 304 301 295 296 295 289 280 225 236 120 36 7 215 214 222 235 227 194 201 210 219 212 223 256 244 87 9 27 334 273 251 230 275 246 31 132 179
336 336 333 327 322 315 310 302 296 299 304 305 308 297 259 228 245 270 301 40 357 218 215 216 226 221 203 200 215 229 241 217 251 358 297 274 258 286 292 279 29 71 41 93 166
334 336 333 329 321 315 308 300 293 293 295 295 295 309 247 252 258 271 59 92 38 338 220 223 228 220 206 227 212 226 232 257 223 201 255 55 225 220 257 259 182 137 163 234 210
341 338 332 327 322 310 300 291 287 287 295 290 285 265 260 248 283 112 112 124 80 348 328 240 227 227 223 210 230 162 228 241 238 218 164 136 263 236 252 300 267 188 213 221 201
342 337 332 326 320 316 309 291 280 284 281 281 277 264 255 254 241 262 267 178 150 185 289 283 273 261 230 241 189 229 200 214 207 231 171 128 250 215 233 256 271 268 228 220 213
339 335 330 331 329 325 309 296 266 275 270 263 235 201 265 108 234 250 246 258 102 348 286 270 275 214 236 198 212 182 202 206 219 213 176 174 239 235 220 218 234 255 268 240 206
338 333 332 335 339 337 327 310 249 314 257 213 193 163 256 216 152 325 299 142 90 8 303 221 213 181 200 179 198 198 213 195 208 189 197 201 233 292 164 193 221 242 242 249 225
338 336 339 343 353 350 320 212 103 185 226 197 173 229 6 198 311 253 237 101 110 126 223 200 182 181 194 196 207 195 199 230 199 211 195 211 207 239 223 176 244 274 286 232 228
338 340 340 344 343 334 354 2 43 349 341 274 269 254 267 297 278 285 200 141 121 215 271 205 216 204 195 199 201 230 226 214 243 144 174 203 227 228 219 215 197 227 257 273 273
338 339 339 340 343 313 58 9 319 330 287 265 229 263 267 233 249 253 169 165 204 217 222 208 190 197 175 202 197 227 198 243 194 145 256 193 274 219 230 209 193 223 251 306 314
338 339 343 336 344 10 61 335 317 331 254 69 359 166 252 226 226 278 157 153 105 225 244 209 164 175 176 188 196 209 216 242 208 163 188 171 260 206 204 200 208 208 209 237 161
337 337 337 339 305 67 339 22 352 275 33 48 266 258 252 243 341 178 122 140 193 211 196 183 162 148 150 175 199 218 314 268 131 199 129 188 319 269 187 203 176 202 185 125 122
336 332 328 326 174 87 41 335 257 238 23 343 193 97 160 194 164 204 145 99 224 149 77 57 31 60 59 140 136 26 346 330 184 187 267 183 191 226 176 188 172 156 141 145 157
332 330 295 295 33 113 47 6 231 28 349 340 349 353 330 347 86 127 162 200 151 87 79 60 31 54 53 83 105 93 217 105 144 166 225 184 193 265 191 161 156 143 142 138 160
333 324 200 343 119 112 117 203 45 14 337 348 294 312 37 5 55 33 276 99 45 88 111 130 142 81 63 99 165 170 276 189 191 190 147 359 205 221 112 117 138 133 125 145 126
321 181 249 114 169 180 249 44 31 339 310 327 327 20 338 83 111 147 204 83 67 223 110 132 93 96 200 102 155 150 189 101 288 228 102 194 131 24 97 120 118 129 148 155 126
315 271 78 50 166 354 32 62 357 290 127 201 284 241 10 75 175 192 72 30 146 25 70 131 103 60 104 164 172 237 178 155 255 254 190 212 164 200 184 168 163 160 174 144 136
213 276 120 99 163 17 49 356 225 259 266 271 325 27 28 20 48 59 69 67 43 324 139 157 112 139 159 208 154 164 230 234 316 118 309 127 244 180 173 167 169 165 162 141 134
310 23 185 168 17 4 12 339 39 278 179 256 262 8 12 32 18 64 74 52 357 334 45 12 103 123 93 110 317 310 203 203 126 235 103 182 289 125 144 153 133 116 127 130 123
350 310 212 220 33 360 340 316 279 350 17 333 23 357 351 13 87 74 85 63 1 39 42 171 131 112 142 179 163 230 231 47 77 46 217 94 223 124 100 95 120 148 161 143 145
357 1 326 60 184 206 330 310 333 156 306 340 357 283 340 42 38 97 95 65 23 51 329 331 54 101 152 97 115 172 213 125 105 132 189 218 141 150 150 163 201 166 162 152 154
34 30 21 331 341 317 8 339 345 7 340 334 48 0 344 16 77 74 87 150 105 129 283 30 117 92 74 91 94 175 195 156 147 236 125 324 243 202 167 167 214 149 147 144 150
41 4 343 285 300 341 11 20 352 343 352 7 17 355 17 49 10 4 174 229 95 120 49 355 89 87 307 62 216 219 227 206 174 236 268 281 321 99 172 166 144 163 153 157 161
2 335 259 284 317 340 14 352 312 330 266 35 326 311 48 19 343 360 24 36 28 28 152 335 121 137 204 168 296 284 223 202 177 189 204 211 220 45 113 140 160 144 151 176 165